Location: ???? ?????
(30.0052°N, 31.2891°E)
Time: 07:22:28
(UTC+00:00)

SEDSat Delta rocket - Pass Details

Date: 11 October 2022
Orbit: 532 x 995 km, 31.4° (Epoch: 04 December)

Event Time Altitude Azimuth Distance (km) Brightness Sun altitude
Rises 17:17:00 0° 269° (W) 3,174 8.1 -24.2°
Reaches altitude 10° 17:20:09 10° 249° (WSW) 2,344 6.8 -24.9°
Maximum altitude 17:23:44 17° 209° (SSW) 1,980 5.8 -25.7°
Enters shadow 17:26:50 12° 176° (S) 2,380 5.9 -26.3°
